Regional Weather Roundup
Issued by NWS

Home | Current Version | Previous Version | Graphics & Text | Print | Product List | Glossary On
Versions: 1 2 3 4 5 6 7 8 9 10 11 12 13 14 15 16 17 18 19 20 21 22 23 24 25 26 27 28 29 30 31 32 33 34 35 36 37 38 39 40 41 42 43 44 45 46 47 48 49 50
000
ASUS43 KIND 281559
RWRIN

WEATHER ROUNDUP FOR INDIANA
NATIONAL WEATHER SERVICE INDIANAPOLIS IN
1100 AM EST SAT FEB 28 2015

NOTE: "FAIR" INDICATES FEW OR NO CLOUDS BELOW 12,000 FEET WITH NO
SIGNIFICANT WEATHER AND/OR OBSTRUCTIONS TO VISIBILITY.

* - STATION DOES NOT REPORT WEATHER SUCH AS PRECIPITATION OR FOG.

+ - STATION NOT QUALITY CONTROLLED BY THE NATIONAL WEATHER SERVICE.
    USE DATA WITH CAUTION...ESPECIALLY DEWPOINT AND RELATIVE
    HUMIDITY OBSERVATIONS.

INZ001>003-010>013-019-020-281700-
NORTHWEST INDIANA

CITY           SKY/WX    TMP DP  RH WIND       PRES   REMARKS
GARY /AIRPORT/ MOSUNNY   14  -6  41 SE7       30.73F WCI   4
MONTICELLO +   SUNNY     14   3  63 E6        30.71F WCI   5
VALPARAISO     NOT AVBL

$$

LMZ046-743>745-281700-
SOUTHERN LAKE MICHIGAN

STATION/POSITION TIME  TEMP WIND        PRES
                       AIR  DIR/SP/G
                 (UTC) (F)  (DEG/KT/KT) (MB)
MICHIGAN CITY    1500   10  150/  3/  5   N/A

$$

INZ004-005-014>016-021>024-281700-
NORTH CENTRAL INDIANA

CITY           SKY/WX    TMP DP  RH WIND       PRES   REMARKS
ELKHART        SUNNY     12  -2  52 SE5       30.73F WCI   4
GOSHEN         SUNNY     14   2  58 CALM      30.72F
SOUTH BEND     SUNNY     13  -1  54 SE6       30.73F WCI   4

$$

INZ006>009-017-018-025>027-281700-
NORTHEAST INDIANA

CITY           SKY/WX    TMP DP  RH WIND       PRES   REMARKS
ANGOLA *+      SUNNY     10   0  61 S5        30.71F WCI   2
FORT WAYNE     PTSUNNY   14   4  64 SE7       30.74S WCI   4

$$

INZ028-029-035-036-043>045-051>053-281700-
WEST CENTRAL INDIANA

CITY           SKY/WX    TMP DP  RH WIND       PRES   REMARKS
GREENCASTLE +  CLOUDY    18   1  49 SE6       30.70S WCI   9
LAFAYETTE      PTSUNNY   17   6  62 SE8       30.71F WCI   7
TERRE HAUTE    CLOUDY    19   5  54 E8        30.70S WCI   9

$$

INZ030>032-037>040-046>048-054>057-064-065-281700-
CENTRAL INDIANA

CITY           SKY/WX    TMP DP  RH WIND       PRES   REMARKS
ANDERSON       SUNNY     19   3  49 SE9       30.71F WCI   9
CP ATTERBURY + CLOUDY    19   5  53 SE7       30.72S WCI  10
COLUMBUS       CLOUDY    19   1  45 E3        30.72F
FRANKFORT +    MOSUNNY   18   8  64 E10       30.71S WCI   6
INDIANAPOLIS   CLOUDY    18   3  52 SE7       30.70R WCI   9
-EAGLE CREEK   CLOUDY    17   3  54 SE9       30.70S WCI   6
KOKOMO *+      SUNNY     16   7  67 SE9       30.72S WCI   4
MT COMFORT *+  MOSUNNY   18  -4  38 SE8       30.70F WCI   7
SHELBYVILLE    CLOUDY    19   4  51 SE10      30.70F WCI   7

$$

INZ033-034-041-042-049-050-058-059-281700-
EAST CENTRAL INDIANA

CITY           SKY/WX    TMP DP  RH WIND       PRES   REMARKS
MUNCIE         MOSUNNY   18   3  52 SE13      30.70F WCI   5

$$

INZ060-061-067>069-081>083-085>088-281700-
SOUTHWEST INDIANA

CITY           SKY/WX    TMP DP  RH WIND       PRES   REMARKS
EVANSVILLE     PTSUNNY   26  10  50 VRB7      30.67F WCI  18
HUNTINGBURG *+ MOSUNNY   25   9  50 E10       30.67F WCI  15

$$

INZ062-063-066-070>080-084-089>092-281700-
SOUTH CENTRAL AND SOUTHEAST INDIANA

CITY           SKY/WX    TMP DP  RH WIND       PRES   REMARKS
BLOOMINGTON    CLOUDY    19   4  51 SE13      30.67F WCI   6

$$



USA.gov is the U.S. government's official web portal to all federal, state and local government web resources and services.